Meteo Giornale » Osservazioni meteo Spagna » Alicante-El Altet
ore: 12:30 - Osservazioni Meteo Alicante-El Altet
Lat. 38° 17' N Lon. 0° 33' W Alt. 43 metri s.l.m.
29 °C
Nuvoloso
Temp. 24 Ore
26 °C
31 °C
Est
13 Km/h
Dew point 23 °C
Umidità 70 %
Visibilità 10 Km
Il sole sorge alle ore 07:31
Il sole tramonta alle ore 20:32
| Data e Ora | Cielo e Fenomeni | T °C | DP °C | Um. % | Pres. hPa | Vis. km | Vento km/h | |
|---|---|---|---|---|---|---|---|---|
| Oggi h: 12:30 | Nuvoloso | 29 | 23 | 70 | 1020 | 10 | E 13 | |
| Oggi h: 12:00 | Nuvoloso | 29 | 23 | 70 | 1020 | 10 | E/NE 13 | |
| Oggi h: 11:30 | Nuvoloso | 29 | 24 | 74 | 1020 | 10 | E/NE 14.8 | |
| Oggi h: 11:00 | Molto Nuvoloso | 29 | 23 | 70 | 1020 | 10 | E/NE 14.8 | |
| Oggi h: 10:30 | Molto Nuvoloso | 28 | 24 | 78 | 1020 | 10 | E/NE 13 | |
| Oggi h: 10:00 | Molto Nuvoloso | 29 | 24 | 74 | 1019 | 10 | E/NE 14.8 | |
| Oggi h: 09:30 | Molto Nuvoloso | 28 | 24 | 78 | 1019 | 10 | E/NE 14.8 | |
| Oggi h: 09:00 | Molto Nuvoloso | 28 | 24 | 78 | 1019 | 10 | E/NE 7.4 | |
| Oggi h: 08:30 | Nuvoloso | 27 | 21 | 69 | 1019 | 10 | N 5.5 | |
| Oggi h: 08:00 | Poco Nuvoloso | 26 | 20 | 69 | 1018 | 10 | N/NE 7.4 | |
| Oggi h: 07:30 | Poco Nuvoloso | 27 | 20 | 65 | 1018 | 10 | NE 7.4 | |
| Oggi h: 07:00 | Sereno | 26 | 21 | 73 | 1017 | 10 | N/NE 9.3 | |
| Oggi h: 06:30 | Sereno | 26 | 21 | 73 | 1017 | 10 | N/NE 7.4 | |
| Oggi h: 06:00 | Sereno | 26 | 22 | 78 | 1018 | 10 | N 0 | |
| Oggi h: 05:30 | Sereno | 27 | 22 | 74 | 1018 | 10 | N 5.5 | |
| Oggi h: 05:00 | Sereno | 27 | 22 | 74 | 1018 | 10 | N/NE 9.3 | |
| Oggi h: 04:30 | Sereno | 27 | 23 | 78 | 1018 | 10 | N 13 | |
| Oggi h: 04:00 | Sereno | 27 | 23 | 78 | 1018 | 10 | N 7.4 | |
| Oggi h: 03:30 | Sereno | 27 | 23 | 78 | 1018 | 10 | N 9.3 | |
| Oggi h: 03:00 | Poco Nuvoloso | 27 | 24 | 83 | 1019 | 10 | N/NE 9.3 | |
| Oggi h: 02:30 | Poco Nuvoloso | 27 | 24 | 83 | 1019 | 10 | N 7.4 | |
| Oggi h: 02:00 | Nuvoloso | 27 | 24 | 83 | 1019 | 10 | N 5.5 | |
| Oggi h: 01:30 | Nuvoloso | 27 | 24 | 83 | 1019 | 10 | N 5.5 | |
| Oggi h: 01:00 | Nuvoloso | 27 | 24 | 83 | 1019 | 10 | N 9.3 | |
| Oggi h: 00:30 | Molto Nuvoloso | 27 | 24 | 83 | 1019 | 10 | N 9.3 | |
| Oggi h: 00:00 | Molto Nuvoloso | 28 | 24 | 78 | 1019 | 10 | N 5.5 | |
| Ieri h: 23:30 | Molto Nuvoloso | 27 | 24 | 83 | 1019 | 10 | N 5.5 | |
| Ieri h: 23:00 | Poco Nuvoloso | 27 | 24 | 83 | 1019 | 10 | N 5.5 | |
| Ieri h: 22:30 | Sereno | 27 | 24 | 83 | 1018 | 10 | NE 7.4 | |
| Ieri h: 22:00 | Sereno | 27 | 24 | 83 | 1018 | 10 | E/NE 7.4 | |
| Ieri h: 21:30 | Sereno | 27 | 24 | 83 | 1017 | 10 | NE 7.4 | |
| Ieri h: 21:00 | Sereno | 27 | 24 | 83 | 1017 | 10 | E/NE 7.4 | |
| Ieri h: 20:30 | Poco Nuvoloso | 27 | 24 | 83 | 1017 | 10 | E/NE 11.1 | |
| Ieri h: 20:00 | Poco Nuvoloso | 28 | 24 | 78 | 1017 | 10 | E 13 | |
| Ieri h: 19:30 | Poco Nuvoloso | 28 | 24 | 78 | 1017 | 10 | E 14.8 | |
| Ieri h: 19:00 | Poco Nuvoloso | 28 | 24 | 78 | 1016 | 10 | E 14.8 | |
| Ieri h: 18:30 | Poco Nuvoloso | 29 | 24 | 74 | 1017 | 10 | E 13 | |
| Ieri h: 18:00 | Poco Nuvoloso | 29 | 24 | 74 | 1017 | 10 | E 13 | |
| Ieri h: 17:30 | Poco Nuvoloso | 29 | 23 | 70 | 1017 | 10 | E 14.8 | |
| Ieri h: 17:00 | Sereno | 30 | 22 | 62 | 1017 | 10 | E 13 | |
| Ieri h: 16:30 | Sereno | 30 | 23 | 66 | 1017 | 10 | E 14.8 | |
| Ieri h: 16:00 | Poco Nuvoloso | 30 | 23 | 66 | 1018 | 10 | E 14.8 | |
| Ieri h: 15:30 | Poco Nuvoloso | 30 | 23 | 66 | 1018 | 10 | E 14.8 | |
| Ieri h: 15:00 | Poco Nuvoloso | 30 | 23 | 66 | 1018 | 10 | E 16.7 | |
| Ieri h: 14:30 | Sereno | 30 | 22 | 62 | 1018 | 10 | E/SE 14.8 | |
| Ieri h: 14:00 | Sereno | 31 | 20 | 52 | 1018 | 10 | E/SE 14.8 | |



